Weather History for KTUL - September, 2013

Change the Weather History Date:

Monday, September 9, 2013

  Actual Average Record
Temperature  
Mean Temperature 85 °F 76 °F  
Max Temperature 96 °F 87 °F 102 °F (1909)
Min Temperature 74 °F 65 °F 51 °F (1943)
Degree Days  
Heating Degree Days 0 0  
Month to date heating degree days 0 0  
Since 1 July heating degree days 0 0  
Cooling Degree Days 20 11  
Month to date cooling degree days 152 112  
Year to date cooling degree days 1781 1813  
Growing Degree Days 34 (Base 50)    
Moisture  
Dew Point 63 °F    
Average Humidity 50    
Maximum Humidity 68    
Minimum Humidity 31    
Precipitation  
Precipitation 0.00 in 0.15 in 2.67 in (1951)
Month to date precipitation 0.00 1.24  
Year to date precipitation 23.38 28.72  
Sea Level Pressure  
Sea Level Pressure 29.90 in    
Wind  
Wind Speed 9 mph (South)    
Max Wind Speed 23 mph    
Max Gust Speed 28 mph    
Visibility 10 miles    
Events      
T = Trace of Precipitation, MM = Missing Value Source: NWS Daily Summary

Daily Weather History Graph

Daily Weather History Graph

Search for Another Location

Airport or City:

Trip Planner

Search our weather history database for the weather conditions in past years. The results will help you decide how hot, cold, wet, or windy it might be!

Date:

Astronomy

Sep. 09, 2013 Rise Set
Actual Time 7:01 AM CDT 7:39 PM CDT
Civil Twilight 6:35 AM CDT 8:05 PM CDT
Nautical Twilight 6:05 AM CDT 8:35 PM CDT
Astronomical Twilight 5:33 AM CDT 9:06 PM CDT
Moon 11:14 AM CDT (9/9) 10:06 PM CDT (9/9)
Length of Visible Light 13h 29m
Length of Day
12h 37m
Waxing Crescent, 19% of the Moon is Illuminated
Sep 9
Waxing Crescent
Sep 12
First Quarter
Sep 19
Full
Sep 26
Last Quarter
Oct 4
New

Hourly Weather History & Observations

Time (CDT) Temp. Heat Index Dew Point Humidity Pressure Visibility Wind Dir Wind Speed Gust Speed Precip Events Conditions
12:53 AM 82.9 °F 85.0 °F 66.0 °F 56% 29.87 in 10.0 mi South 6.9 mph - N/A   Clear
1:53 AM 81.0 °F 82.5 °F 64.0 °F 56% 29.87 in 10.0 mi South 5.8 mph - N/A   Clear
2:53 AM 79.0 °F - 63.0 °F 58% 29.88 in 10.0 mi South 5.8 mph - N/A   Clear
3:53 AM 78.1 °F - 62.1 °F 58% 29.88 in 10.0 mi South 4.6 mph - N/A   Clear
4:53 AM 78.1 °F - 62.1 °F 58% 29.89 in 10.0 mi South 5.8 mph - N/A   Clear
5:53 AM 75.0 °F - 62.1 °F 64% 29.90 in 10.0 mi South 6.9 mph - N/A   Clear
6:53 AM 73.9 °F - 62.1 °F 66% 29.91 in 10.0 mi South 6.9 mph - N/A   Partly Cloudy
7:53 AM 75.9 °F - 63.0 °F 64% 29.93 in 10.0 mi South 5.8 mph - N/A   Partly Cloudy
8:53 AM 81.0 °F 82.5 °F 64.0 °F 56% 29.94 in 10.0 mi South 6.9 mph - N/A   Partly Cloudy
9:53 AM 84.9 °F 86.6 °F 64.9 °F 51% 29.95 in 10.0 mi SW 5.8 mph - N/A   Clear
10:53 AM 89.1 °F 91.3 °F 66.0 °F 46% 29.95 in 10.0 mi SSW 8.1 mph - N/A   Clear
11:53 AM 91.9 °F 94.1 °F 64.9 °F 41% 29.95 in 10.0 mi SW 8.1 mph - N/A   Clear
12:53 PM 95.0 °F 96.0 °F 63.0 °F 34% 29.94 in 10.0 mi SSW 17.3 mph 23.0 mph N/A   Partly Cloudy
1:53 PM 96.1 °F 98.3 °F 64.0 °F 35% 29.93 in 10.0 mi South 16.1 mph - N/A   Scattered Clouds
2:53 PM 95.0 °F 95.2 °F 61.0 °F 32% 29.91 in 10.0 mi South 17.3 mph 26.5 mph N/A   Scattered Clouds
3:53 PM 95.0 °F 95.6 °F 62.1 °F 33% 29.89 in 10.0 mi SSE 17.3 mph 23.0 mph N/A   Scattered Clouds
4:53 PM 95.0 °F 95.6 °F 62.1 °F 33% 29.88 in 10.0 mi South 15.0 mph 27.6 mph N/A   Partly Cloudy
5:53 PM 93.9 °F 94.0 °F 61.0 °F 33% 29.87 in 10.0 mi South 13.8 mph 25.3 mph N/A   Partly Cloudy
6:53 PM 93.0 °F 92.7 °F 60.1 °F 33% 29.87 in 10.0 mi South 11.5 mph - N/A   Partly Cloudy
7:53 PM 90.0 °F 89.7 °F 60.1 °F 37% 29.88 in 10.0 mi South 6.9 mph - N/A   Clear
8:53 PM 88.0 °F 87.6 °F 60.1 °F 39% 29.89 in 10.0 mi South 6.9 mph - N/A   Clear
9:53 PM 79.0 °F - 63.0 °F 58% 29.91 in 10.0 mi SSE 5.8 mph - N/A   Clear
10:53 PM 82.9 °F 84.0 °F 63.0 °F 51% 29.92 in 10.0 mi SSE 4.6 mph - N/A   Clear
11:53 PM 82.0 °F 83.1 °F 63.0 °F 52% 29.93 in 10.0 mi South 8.1 mph - N/A   Clear